Simultaneous Nadir Overpasses (SNOs) Predictions

Prediction of SNOs between METOP-B and TERRA Satellite Orbit:

Table of predicted SNOs for the next 14.0 days since TLE Epoch: 1/13/2024
Index Date (METOP-B) Time (METOP-B) Lat,Lon (METOP-B) SZA (METOP-B ) Date (TERRA) Time (TERRA) Lat,Lon (TERRA) SZA (TERRA ) Distance(km) Time Diff (sec)
1 01/13/2024 04:13:57 -80.46, -37.65 77.26 01/13/2024 04:15:10 -80.46, -37.81 77.26 3.01 73
2 01/13/2024 05:04:36 80.51, 130.25 102.82 01/13/2024 05:04:30 80.51, 130.37 102.83 2.35 6
3 01/15/2024 19:35:03 80.43, -88.34 102.21 01/15/2024 19:35:55 80.43, -88.24 102.23 1.90 52
4 01/15/2024 20:25:39 -80.56, 80.66 77.58 01/15/2024 20:25:13 -80.55, 80.59 77.59 1.26 26
5 01/18/2024 10:56:07 -80.45,-138.31 78.27 01/18/2024 10:56:38 -80.46,-138.21 78.26 2.09 31
6 01/18/2024 11:46:43 80.57, 30.51 101.92 01/18/2024 11:45:56 80.57, 30.51 101.91 0.12 47
7 01/21/2024 02:17:08 80.51, 172.08 101.25 01/21/2024 02:17:18 80.51, 172.06 101.26 0.54 10
8 01/21/2024 03:07:45 -80.61, -19.18 78.57 01/21/2024 03:06:37 -80.60, -19.32 78.61 2.71 68
9 01/23/2024 16:47:36 80.39, -47.06 100.45 01/23/2024 16:48:42 80.39, -46.92 100.48 2.71 66
10 01/23/2024 17:38:13 -80.50, 121.68 79.38 01/23/2024 17:38:01 -80.50, 121.73 79.38 0.92 12
11 01/26/2024 08:08:39 -80.42, -96.86 80.14 01/26/2024 08:09:23 -80.43, -96.79 80.13 1.23 44



Historial Predications of SNOs between METOP-B and TERRA
